User: anonymous   Login
Location: Owatonna
(44.0840°N, 93.2260°W)
Time: 21:19:06
(UTC-05:00)
Language:

Cosmos 1500 Rocket - Orbit

View from above orbital plane
View from above orbital plane
View from above satellite
View from above satellite

Ground track
Ground track

The orbit data is extracted from the following two-line orbital elements,

1 14373U 83099B   14294.80435120  .00001035  00000-0  12347-3 0  8033
2 14373 082.5417 070.2379 0020755 181.1454 290.9436 14.83184823677159
Epoch (UTC): 21 October 2014 19:18:15
Eccentricity: 0.0020755
inclination: 82.5417°
perigee height: 605 km
apogee height: 634 km
right ascension of ascending node: 70.2379°
argument of perigee: 181.1454°
revolutions per day: 14.83184823
mean anomaly at epoch: 290.9436°
orbit number at epoch: 67715

The dashed part of the orbit path shows where the satellite is in the earth's shadow,  

DLR